| time (UTC) | temp F | wind direction | speed MPH | gust MPH | rain 1hr in | rain 24hr in | rain mn in | humidity % | barometer mb |
| 20260506041317 | 37 | 0 | 2.0 | 5.0 | 0.00 | 0.00 | 0.00 | 78 | 4097.0 |
| 20260506040814 | 37 | 44 | 1.0 | 2.0 | 0.00 | 0.00 | 0.00 | 78 | 4097.0 |
| 20260506040312 | 37 | 42 | 0.0 | 0.0 | 0.00 | 0.00 | 0.00 | 78 | 4097.0 |
| 20260506035808 | 37 | 42 | 2.0 | 3.0 | 0.00 | 0.00 | 0.00 | 78 | 4097.3 |
| 20260506035306 | 36 | 10 | 0.0 | 1.0 | 0.00 | 0.00 | 0.00 | 79 | 4097.0 |
| 20260506034802 | 36 | 49 | 2.0 | 2.0 | 0.00 | 0.00 | 0.00 | 81 | 4097.0 |
| 20260506034259 | 37 | 353 | 0.0 | 1.0 | 0.00 | 0.00 | 0.00 | 82 | 4097.0 |
| 20260506033756 | 37 | 353 | 0.0 | 0.0 | 0.00 | 0.00 | 0.00 | 82 | 4097.0 |
| 20260506033253 | 37 | 1 | 0.0 | 0.0 | 0.00 | 0.00 | 0.00 | 82 | 4097.0 |
| 20260506032750 | 37 | 5 | 0.0 | 0.0 | 0.00 | 0.00 | 0.00 | 82 | 4097.0 |
| 20260506032247 | 37 | 346 | 0.0 | 0.0 | 0.00 | 0.00 | 0.00 | 82 | 4097.0 |
| 20260506031743 | 37 | 339 | 0.0 | 0.0 | 0.00 | 0.00 | 0.00 | 82 | 4096.5 |
| 20260506031241 | 37 | 14 | 1.0 | 2.0 | 0.00 | 0.00 | 0.00 | 81 | 4097.0 |
| 20260506030739 | 37 | 11 | 0.0 | 0.0 | 0.00 | 0.00 | 0.00 | 81 | 4097.0 |
| 20260506030236 | 37 | 358 | 1.0 | 1.0 | 0.00 | 0.00 | 0.00 | 81 | 4097.0 |
| 20260506025733 | 38 | 350 | 0.0 | 0.0 | 0.00 | 0.00 | 0.00 | 80 | 4096.5 |
| 20260506025230 | 38 | 344 | 0.0 | 1.0 | 0.00 | 0.00 | 0.00 | 81 | 4097.0 |
| 20260506024727 | 38 | 346 | 0.0 | 1.0 | 0.00 | 0.00 | 0.00 | 81 | 4097.0 |
| 20260506024223 | 38 | 350 | 1.0 | 2.0 | 0.00 | 0.00 | 0.00 | 80 | 4096.5 |
| 20260506023719 | 38 | 14 | 1.0 | 1.0 | 0.00 | 0.00 | 0.00 | 80 | 4097.0 |
| 20260506023217 | 38 | 19 | 4.0 | 6.0 | 0.00 | 0.00 | 0.00 | 80 | 4096.5 |
| 20260506022713 | 38 | 33 | 0.0 | 1.0 | 0.00 | 0.00 | 0.00 | 81 | 4096.5 |
| 20260506022211 | 38 | 325 | 0.0 | 0.0 | 0.00 | 0.00 | 0.00 | 81 | 4096.5 |
| 20260506021709 | 38 | 342 | 2.0 | 2.0 | 0.00 | 0.00 | 0.00 | 81 | 4097.0 |
| 20260506021206 | 38 | 25 | 0.0 | 1.0 | 0.00 | 0.00 | 0.00 | 80 | 4096.2 |
| 20260506020703 | 38 | 331 | 0.0 | 0.0 | 0.00 | 0.00 | 0.00 | 82 | 4096.5 |
| 20260506020201 | 38 | 26 | 1.0 | 1.0 | 0.00 | 0.00 | 0.00 | 85 | 4096.2 |
| 20260506015658 | 38 | 336 | 1.0 | 1.0 | 0.00 | 0.00 | 0.00 | 88 | 4095.9 |
| 20260506015155 | 38 | 336 | 0.0 | 0.0 | 0.00 | 0.00 | 0.00 | 88 | 4096.2 |
| 20260506014652 | 38 | 333 | 0.0 | 1.0 | 0.00 | 0.00 | 0.00 | 88 | 4096.2 |
| 20260506014148 | 38 | 322 | 2.0 | 3.0 | 0.00 | 0.00 | 0.00 | 88 | 4095.9 |
| 20260506013646 | 38 | 357 | 1.0 | 1.0 | 0.00 | 0.00 | 0.00 | 88 | 4095.9 |
| 20260506013143 | 38 | 337 | 0.0 | 0.0 | 0.00 | 0.00 | 0.00 | 88 | 4095.5 |
| 20260506012639 | 38 | 20 | 0.0 | 1.0 | 0.00 | 0.00 | 0.00 | 88 | 4095.9 |
| 20260506012136 | 38 | 353 | 1.0 | 1.0 | 0.00 | 0.00 | 0.00 | 88 | 4095.9 |
| 20260506011633 | 38 | 341 | 0.0 | 1.0 | 0.00 | 0.00 | 0.00 | 88 | 4095.9 |
| 20260506011129 | 38 | 318 | 0.0 | 0.0 | 0.00 | 0.00 | 0.00 | 88 | 4095.5 |
| 20260506010628 | 38 | 10 | 0.0 | 0.0 | 0.00 | 0.00 | 0.00 | 88 | 4095.5 |
| 20260506010125 | 38 | 2 | 1.0 | 1.0 | 0.00 | 0.00 | 0.00 | 88 | 4095.5 |
| 20260506005622 | 38 | 352 | 1.0 | 1.0 | 0.00 | 0.00 | 0.00 | 87 | 4095.5 |
| 20260506005118 | 38 | 350 | 1.0 | 1.0 | 0.00 | 0.00 | 0.00 | 87 | 4095.2 |
| 20260506004615 | 39 | 9 | 3.0 | 3.0 | 0.00 | 0.00 | 0.00 | 87 | 4095.5 |
| 20260506004112 | 39 | 17 | 0.0 | 0.0 | 0.00 | 0.00 | 0.00 | 87 | 4095.2 |
| 20260506003609 | 39 | 14 | 0.0 | 1.0 | 0.00 | 0.00 | 0.00 | 86 | 4095.2 |
| 20260506003105 | 39 | 352 | 0.0 | 1.0 | 0.00 | 0.00 | 0.00 | 86 | 4095.2 |
| 20260506002601 | 40 | 323 | 0.0 | 0.0 | 0.00 | 0.00 | 0.00 | 85 | 4094.9 |
| 20260506002057 | 40 | 322 | 1.0 | 1.0 | 0.00 | 0.00 | 0.00 | 84 | 4095.2 |
| 20260506001553 | 40 | 325 | 0.0 | 0.0 | 0.00 | 0.00 | 0.00 | 85 | 4094.9 |
| 20260506001050 | 40 | 322 | 1.0 | 3.0 | 0.00 | 0.00 | 0.00 | 85 | 4095.2 |
| 20260506000548 | 40 | 282 | 2.0 | 2.0 | 0.00 | 0.00 | 0.00 | 85 | 4095.2 |
| 20260506000045 | 40 | 333 | 0.0 | 1.0 | 0.00 | 0.00 | 0.00 | 85 | 4094.9 |
| 20260505235543 | 41 | 23 | 0.0 | 0.0 | 0.00 | 0.00 | 0.00 | 84 | 4094.9 |
| 20260505235040 | 41 | 17 | 3.0 | 5.0 | 0.00 | 0.00 | 0.00 | 83 | 4094.9 |
| 20260505234537 | 41 | 344 | 3.0 | 3.0 | 0.00 | 0.00 | 0.00 | 83 | 4094.9 |
| 20260505234033 | 41 | 16 | 1.0 | 2.0 | 0.00 | 0.00 | 0.00 | 84 | 4094.9 |
| 20260505233531 | 42 | 27 | 1.0 | 1.0 | 0.00 | 0.00 | 0.00 | 84 | 4094.9 |
| 20260505233028 | 42 | 29 | 1.0 | 1.0 | 0.00 | 0.00 | 0.00 | 84 | 4094.5 |
| 20260505232526 | 42 | 32 | 2.0 | 3.0 | 0.00 | 0.00 | 0.00 | 84 | 4094.5 |
| 20260505232023 | 42 | 50 | 1.0 | 1.0 | 0.00 | 0.00 | 0.00 | 85 | 4094.5 |
| 20260505231520 | 42 | 24 | 2.0 | 3.0 | 0.00 | 0.00 | 0.00 | 85 | 4094.5 |
| 20260505231019 | 42 | 336 | 4.0 | 5.0 | 0.00 | 0.00 | 0.00 | 84 | 4094.9 |
| 20260505230516 | 43 | 328 | 4.0 | 6.0 | 0.00 | 0.00 | 0.00 | 83 | 4094.9 |
| 20260505230012 | 43 | 16 | 2.0 | 2.0 | 0.00 | 0.00 | 0.00 | 82 | 4094.5 |
| 20260505225509 | 44 | 343 | 0.0 | 0.0 | 0.00 | 0.00 | 0.00 | 82 | 4094.5 |
| 20260505225005 | 44 | 0 | 2.0 | 3.0 | 0.00 | 0.00 | 0.00 | 81 | 4094.5 |
| 20260505224502 | 44 | 345 | 1.0 | 2.0 | 0.00 | 0.00 | 0.00 | 81 | 4094.5 |
| 20260505223959 | 44 | 5 | 3.0 | 3.0 | 0.00 | 0.00 | 0.00 | 80 | 4094.2 |
| 20260505223456 | 46 | 1 | 1.0 | 2.0 | 0.00 | 0.00 | 0.00 | 79 | 4094.5 |
| 20260505222952 | 45 | 359 | 1.0 | 2.0 | 0.00 | 0.00 | 0.00 | 80 | 4094.2 |
| 20260505222449 | 45 | 347 | 3.0 | 3.0 | 0.00 | 0.00 | 0.00 | 80 | 4094.2 |
| 20260505221944 | 46 | 14 | 2.0 | 2.0 | 0.00 | 0.00 | 0.00 | 79 | 4094.2 |
| 20260505221442 | 46 | 22 | 3.0 | 3.0 | 0.00 | 0.00 | 0.00 | 79 | 4094.2 |
| 20260505220939 | 47 | 55 | 3.0 | 6.0 | 0.00 | 0.00 | 0.00 | 78 | 4094.2 |
| 20260505220436 | 49 | 296 | 0.0 | 0.0 | 0.00 | 0.00 | 0.00 | 77 | 4093.8 |
| 20260505215934 | 50 | 286 | 1.0 | 2.0 | 0.00 | 0.00 | 0.00 | 75 | 4093.8 |
| 20260505215432 | 50 | 216 | 0.0 | 0.0 | 0.00 | 0.00 | 0.00 | 76 | 4094.2 |
| 20260505214929 | 49 | 242 | 0.0 | 1.0 | 0.00 | 0.00 | 0.00 | 80 | 4093.8 |
| 20260505214427 | 49 | 38 | 1.0 | 2.0 | 0.00 | 0.00 | 0.00 | 79 | 4093.5 |
| 20260505213924 | 50 | 167 | 1.0 | 2.0 | 0.00 | 0.00 | 0.00 | 79 | 4093.5 |
| 20260505213421 | 51 | 152 | 0.0 | 1.0 | 0.00 | 0.00 | 0.00 | 77 | 4093.8 |
| 20260505212917 | 50 | 184 | 0.0 | 1.0 | 0.00 | 0.00 | 0.00 | 79 | 4093.8 |
| 20260505212414 | 50 | 212 | 0.0 | 1.0 | 0.00 | 0.00 | 0.00 | 79 | 4093.8 |
| 20260505211911 | 50 | 5 | 2.0 | 3.0 | 0.00 | 0.00 | 0.00 | 79 | 4093.5 |
| 20260505211409 | 50 | 224 | 2.0 | 2.0 | 0.00 | 0.00 | 0.00 | 78 | 4093.5 |
| 20260505210904 | 50 | 58 | 1.0 | 3.0 | 0.00 | 0.00 | 0.00 | 75 | 4093.5 |
| 20260505210402 | 51 | 176 | 0.0 | 1.0 | 0.00 | 0.00 | 0.00 | 72 | 4093.5 |
| 20260505205859 | 52 | 326 | 2.0 | 2.0 | 0.00 | 0.00 | 0.00 | 65 | 4093.2 |
| 20260505205357 | 52 | 329 | 2.0 | 3.0 | 0.00 | 0.00 | 0.00 | 65 | 4093.2 |
| 20260505204854 | 52 | 292 | 1.0 | 2.0 | 0.00 | 0.00 | 0.00 | 65 | 4093.2 |
| 20260505204351 | 52 | 298 | 1.0 | 2.0 | 0.00 | 0.00 | 0.00 | 64 | 4093.2 |
| 20260505203848 | 52 | 300 | 0.0 | 0.0 | 0.00 | 0.00 | 0.00 | 65 | 4093.2 |
| 20260505203345 | 52 | 286 | 1.0 | 2.0 | 0.00 | 0.00 | 0.00 | 64 | 4093.2 |
| 20260505202841 | 51 | 249 | 0.0 | 0.0 | 0.00 | 0.00 | 0.00 | 69 | 4093.2 |
| 20260505202337 | 51 | 309 | 2.0 | 3.0 | 0.00 | 0.00 | 0.00 | 69 | 4093.2 |
| 20260505201834 | 51 | 39 | 2.0 | 2.0 | 0.00 | 0.00 | 0.00 | 67 | 4092.8 |
| 20260505201332 | 51 | 324 | 3.0 | 5.0 | 0.00 | 0.00 | 0.00 | 68 | 4093.2 |
| 20260505200830 | 52 | 53 | 0.0 | 0.0 | 0.00 | 0.00 | 0.00 | 65 | 4093.2 |
| 20260505200326 | 52 | 328 | 0.0 | 1.0 | 0.00 | 0.00 | 0.00 | 67 | 4093.2 |
| 20260505195822 | 52 | 347 | 1.0 | 1.0 | 0.00 | 0.00 | 0.00 | 67 | 4093.2 |
| 20260505195319 | 52 | 328 | 2.0 | 2.0 | 0.00 | 0.00 | 0.00 | 65 | 4093.2 |
| 20260505194816 | 52 | 356 | 2.0 | 3.0 | 0.00 | 0.00 | 0.00 | 68 | 4093.2 |
| 20260505194314 | 52 | 334 | 2.0 | 2.0 | 0.00 | 0.00 | 0.00 | 67 | 4093.2 |
| 20260505193808 | 51 | 311 | 1.0 | 1.0 | 0.00 | 0.00 | 0.00 | 67 | 4092.8 |
| 20260505193307 | 52 | 61 | 2.0 | 2.0 | 0.00 | 0.00 | 0.00 | 67 | 4093.2 |
| 20260505192805 | 52 | 9 | 3.0 | 5.0 | 0.00 | 0.00 | 0.00 | 67 | 4092.8 |
| 20260505192305 | 51 | 335 | 2.0 | 2.0 | 0.00 | 0.00 | 0.00 | 66 | 4092.8 |
| 20260505191800 | 50 | 347 | 0.0 | 1.0 | 0.00 | 0.00 | 0.00 | 73 | 4092.8 |
| 20260505191258 | 51 | 300 | 1.0 | 1.0 | 0.00 | 0.00 | 0.00 | 72 | 4092.8 |
| 20260505190754 | 51 | 183 | 0.0 | 1.0 | 0.00 | 0.00 | 0.00 | 74 | 4092.8 |
| 20260505190249 | 50 | 108 | 0.0 | 0.0 | 0.00 | 0.00 | 0.00 | 77 | 4092.8 |
| 20260505185746 | 50 | 244 | 3.0 | 3.0 | 0.00 | 0.00 | 0.00 | 76 | 4092.8 |
| 20260505185243 | 50 | 16 | 1.0 | 2.0 | 0.00 | 0.00 | 0.00 | 74 | 4092.5 |
| 20260505184738 | 50 | 177 | 1.0 | 1.0 | 0.00 | 0.00 | 0.00 | 73 | 4092.5 |
| 20260505184236 | 49 | 309 | 0.0 | 1.0 | 0.00 | 0.00 | 0.00 | 74 | 4092.5 |
| 20260505183733 | 49 | 283 | 2.0 | 2.0 | 0.00 | 0.00 | 0.00 | 73 | 4092.5 |
| 20260505183230 | 50 | 281 | 2.0 | 2.0 | 0.00 | 0.00 | 0.00 | 74 | 4092.5 |
| 20260505182726 | 50 | 354 | 1.0 | 3.0 | 0.00 | 0.00 | 0.00 | 73 | 4092.5 |
| 20260505182224 | 50 | 126 | 2.0 | 3.0 | 0.00 | 0.00 | 0.00 | 73 | 4092.1 |
| 20260505181720 | 50 | 29 | 1.0 | 2.0 | 0.00 | 0.00 | 0.00 | 72 | 4092.5 |
| 20260505181218 | 50 | 341 | 2.0 | 5.0 | 0.00 | 0.00 | 0.00 | 72 | 4092.1 |
| 20260505180714 | 50 | 273 | 2.0 | 2.0 | 0.00 | 0.00 | 0.00 | 71 | 4092.5 |
| 20260505180211 | 51 | 201 | 1.0 | 1.0 | 0.00 | 0.00 | 0.00 | 70 | 4092.1 |
| 20260505175707 | 50 | 186 | 0.0 | 1.0 | 0.00 | 0.00 | 0.00 | 74 | 4092.5 |
| 20260505175203 | 50 | 277 | 1.0 | 2.0 | 0.00 | 0.00 | 0.00 | 72 | 4092.5 |
| 20260505174700 | 50 | 43 | 0.0 | 0.0 | 0.00 | 0.00 | 0.00 | 72 | 4092.1 |
| 20260505174156 | 50 | 296 | 3.0 | 5.0 | 0.00 | 0.00 | 0.00 | 70 | 4092.1 |
| 20260505173653 | 50 | 16 | 1.0 | 1.0 | 0.00 | 0.00 | 0.00 | 74 | 4092.1 |
| 20260505173150 | 50 | 2 | 1.0 | 2.0 | 0.00 | 0.00 | 0.00 | 71 | 4092.1 |
| 20260505172647 | 49 | 341 | 0.0 | 1.0 | 0.00 | 0.00 | 0.00 | 74 | 4092.1 |
| 20260505172144 | 49 | 294 | 2.0 | 2.0 | 0.00 | 0.00 | 0.00 | 71 | 4092.1 |
| 20260505171643 | 49 | 50 | 1.0 | 1.0 | 0.00 | 0.00 | 0.00 | 75 | 4092.1 |
| 20260505171141 | 50 | 300 | 2.0 | 2.0 | 0.00 | 0.00 | 0.00 | 72 | 4092.1 |
| 20260505170638 | 51 | 343 | 0.0 | 0.0 | 0.00 | 0.00 | 0.00 | 72 | 4092.1 |
| 20260505170134 | 51 | 69 | 1.0 | 1.0 | 0.00 | 0.00 | 0.00 | 71 | 4092.1 |
| 20260505165629 | 50 | 73 | 0.0 | 1.0 | 0.00 | 0.00 | 0.00 | 73 | 4092.1 |
| 20260505165125 | 50 | 73 | 0.0 | 1.0 | 0.00 | 0.00 | 0.00 | 73 | 4092.5 |
| 20260505164621 | 50 | 10 | 1.0 | 2.0 | 0.00 | 0.00 | 0.00 | 76 | 4092.5 |
| 20260505164119 | 49 | 290 | 2.0 | 2.0 | 0.00 | 0.00 | 0.00 | 74 | 4092.1 |
| 20260505163617 | 48 | 350 | 1.0 | 1.0 | 0.00 | 0.00 | 0.00 | 76 | 4092.1 |
| 20260505163114 | 48 | 300 | 2.0 | 3.0 | 0.00 | 0.00 | 0.00 | 78 | 4092.5 |
| 20260505162612 | 49 | 7 | 3.0 | 3.0 | 0.00 | 0.00 | 0.00 | 74 | 4092.5 |
| 20260505162109 | 49 | 64 | 2.0 | 2.0 | 0.00 | 0.00 | 0.00 | 75 | 4092.5 |
| 20260505161606 | 49 | 119 | 0.0 | 1.0 | 0.00 | 0.00 | 0.00 | 75 | 4092.5 |
| 20260505161103 | 49 | 338 | 2.0 | 3.0 | 0.00 | 0.00 | 0.00 | 75 | 4092.5 |
| 20260505160601 | 49 | 79 | 1.0 | 2.0 | 0.00 | 0.00 | 0.00 | 75 | 4092.1 |
| 20260505153038 | 48 | 64 | 2.0 | 2.0 | 0.00 | 0.00 | 0.00 | 78 | 4092.1 |
| 20260505152535 | 48 | 68 | 1.0 | 2.0 | 0.00 | 0.00 | 0.00 | 78 | 4092.1 |
| 20260505152030 | 48 | 70 | 1.0 | 1.0 | 0.00 | 0.00 | 0.00 | 80 | 4092.1 |
| 20260505151525 | 48 | 70 | 1.0 | 1.0 | 0.00 | 0.00 | 0.00 | 79 | 4092.1 |
| 20260505151023 | 47 | 72 | 1.0 | 1.0 | 0.00 | 0.00 | 0.00 | 80 | 4091.8 |
| 20260505150519 | 48 | 113 | 2.0 | 2.0 | 0.00 | 0.00 | 0.00 | 79 | 4091.8 |
| 20260505140444 | 43 | 211 | 1.0 | 1.0 | 0.00 | 0.00 | 0.00 | 85 | 4091.1 |
| 20260505124857 | 41 | 67 | 0.0 | 1.0 | 0.00 | 0.00 | 0.00 | 88 | 4090.1 |
| 20260505124355 | 41 | 72 | 0.0 | 0.0 | 0.00 | 0.00 | 0.00 | 88 | 4090.1 |
| 20260505123850 | 41 | 79 | 1.0 | 1.0 | 0.00 | 0.00 | 0.00 | 86 | 4090.1 |
| 20260505123347 | 41 | 136 | 0.0 | 0.0 | 0.00 | 0.00 | 0.00 | 87 | 4089.8 |
| 20260505122843 | 41 | 88 | 0.0 | 0.0 | 0.00 | 0.00 | 0.00 | 87 | 4090.1 |
| 20260505122341 | 41 | 112 | 0.0 | 0.0 | 0.00 | 0.00 | 0.00 | 86 | 4089.8 |
| 20260505121837 | 41 | 152 | 0.0 | 1.0 | 0.00 | 0.00 | 0.00 | 87 | 4089.8 |
| 20260505121334 | 40 | 84 | 1.0 | 2.0 | 0.00 | 0.00 | 0.00 | 87 | 4089.8 |
| 20260505120830 | 40 | 84 | 1.0 | 1.0 | 0.00 | 0.00 | 0.00 | 88 | 4089.8 |
| 20260505120327 | 40 | 84 | 0.0 | 0.0 | 0.00 | 0.00 | 0.00 | 88 | 4089.8 |
| 20260505115826 | 40 | 79 | 1.0 | 1.0 | 0.00 | 0.00 | 0.00 | 87 | 4089.8 |
| 20260505115323 | 40 | 52 | 0.0 | 1.0 | 0.00 | 0.00 | 0.00 | 88 | 4089.8 |
| 20260505114821 | 40 | 41 | 0.0 | 0.0 | 0.00 | 0.00 | 0.00 | 88 | 4089.4 |
| 20260505114317 | 40 | 15 | 0.0 | 0.0 | 0.00 | 0.00 | 0.00 | 89 | 4089.4 |
| 20260505113813 | 40 | 82 | 0.0 | 1.0 | 0.00 | 0.00 | 0.00 | 90 | 4089.4 |
| 20260505113309 | 40 | 82 | 1.0 | 1.0 | 0.00 | 0.00 | 0.00 | 90 | 4089.4 |
| 20260505112805 | 40 | 73 | 0.0 | 0.0 | 0.00 | 0.00 | 0.00 | 91 | 4089.4 |
| 20260505112305 | 40 | 82 | 1.0 | 1.0 | 0.00 | 0.00 | 0.00 | 91 | 4089.4 |
| 20260505111759 | 40 | 82 | 0.0 | 0.0 | 0.00 | 0.00 | 0.00 | 91 | 4089.1 |
| 20260505111254 | 40 | 81 | 0.0 | 0.0 | 0.00 | 0.00 | 0.00 | 91 | 4089.1 |
| 20260505110750 | 40 | 77 | 0.0 | 1.0 | 0.00 | 0.00 | 0.00 | 90 | 4089.1 |
| 20260505110248 | 40 | 64 | 0.0 | 1.0 | 0.00 | 0.00 | 0.00 | 90 | 4089.1 |
| 20260505101722 | 38 | 97 | 0.0 | 0.0 | 0.00 | 0.00 | 0.00 | 93 | 4088.0 |
| 20260505101218 | 39 | 98 | 0.0 | 0.0 | 0.00 | 0.00 | 0.00 | 92 | 4088.3 |
| 20260505100715 | 39 | 98 | 0.0 | 0.0 | 0.00 | 0.00 | 0.00 | 90 | 4088.0 |
| 20260505100212 | 39 | 104 | 0.0 | 0.0 | 0.00 | 0.00 | 0.00 | 89 | 4088.0 |
| 20260505095707 | 39 | 113 | 0.0 | 1.0 | 0.00 | 0.00 | 0.00 | 89 | 4088.0 |
| 20260505095205 | 39 | 112 | 0.0 | 1.0 | 0.00 | 0.00 | 0.00 | 89 | 4087.6 |
| 20260505094701 | 39 | 99 | 0.0 | 1.0 | 0.00 | 0.00 | 0.00 | 89 | 4087.6 |
| 20260505094157 | 39 | 88 | 0.0 | 1.0 | 0.00 | 0.00 | 0.00 | 90 | 4088.0 |
| 20260505093653 | 39 | 92 | 1.0 | 1.0 | 0.00 | 0.00 | 0.00 | 92 | 4088.0 |
| 20260505093151 | 39 | 74 | 1.0 | 1.0 | 0.00 | 0.00 | 0.00 | 92 | 4088.0 |
| 20260505092648 | 40 | 84 | 0.0 | 1.0 | 0.00 | 0.00 | 0.00 | 91 | 4087.6 |
| 20260505092147 | 40 | 85 | 1.0 | 1.0 | 0.00 | 0.00 | 0.00 | 91 | 4087.6 |
| 20260505091643 | 39 | 58 | 0.0 | 0.0 | 0.00 | 0.00 | 0.00 | 94 | 4087.6 |
| 20260505091141 | 40 | 24 | 0.0 | 0.0 | 0.00 | 0.00 | 0.00 | 93 | 4087.6 |
| 20260505090638 | 40 | 24 | 0.0 | 0.0 | 0.00 | 0.00 | 0.00 | 92 | 4087.6 |
| 20260505090137 | 40 | 22 | 0.0 | 0.0 | 0.00 | 0.00 | 0.00 | 92 | 4087.6 |
| 20260505085634 | 40 | 17 | 0.0 | 0.0 | 0.00 | 0.00 | 0.00 | 92 | 4087.6 |
| 20260505085132 | 41 | 17 | 0.0 | 0.0 | 0.00 | 0.00 | 0.00 | 91 | 4087.6 |
| 20260505084629 | 41 | 17 | 0.0 | 0.0 | 0.00 | 0.00 | 0.00 | 91 | 4087.6 |
| 20260505084127 | 41 | 0 | 0.0 | 1.0 | 0.00 | 0.00 | 0.00 | 92 | 4087.6 |
| 20260505083625 | 41 | 73 | 0.0 | 0.0 | 0.00 | 0.00 | 0.00 | 92 | 4087.6 |
| 20260505083121 | 41 | 73 | 0.0 | 0.0 | 0.00 | 0.00 | 0.00 | 92 | 4087.3 |
| 20260505082617 | 41 | 70 | 0.0 | 0.0 | 0.00 | 0.00 | 0.00 | 92 | 4087.6 |
| 20260505082114 | 41 | 70 | 0.0 | 0.0 | 0.00 | 0.00 | 0.00 | 91 | 4087.3 |
| 20260505081610 | 41 | 70 | 0.0 | 0.0 | 0.00 | 0.00 | 0.00 | 92 | 4087.3 |
| 20260505081108 | 41 | 64 | 1.0 | 1.0 | 0.00 | 0.00 | 0.00 | 91 | 4087.0 |
| 20260505080604 | 42 | 26 | 1.0 | 2.0 | 0.00 | 0.00 | 0.00 | 91 | 4087.3 |
| 20260505080101 | 42 | 92 | 0.0 | 0.0 | 0.00 | 0.00 | 0.00 | 91 | 4087.0 |
| 20260505075556 | 42 | 93 | 0.0 | 0.0 | 0.00 | 0.00 | 0.00 | 90 | 4087.0 |
| 20260505075053 | 42 | 92 | 0.0 | 0.0 | 0.00 | 0.00 | 0.00 | 89 | 4087.3 |
| 20260505074550 | 43 | 100 | 0.0 | 0.0 | 0.00 | 0.00 | 0.00 | 87 | 4087.0 |
| 20260505074047 | 43 | 25 | 2.0 | 2.0 | 0.00 | 0.00 | 0.00 | 86 | 4087.0 |
| 20260505073544 | 43 | 113 | 1.0 | 2.0 | 0.00 | 0.00 | 0.00 | 85 | 4087.0 |
| 20260505073043 | 43 | 60 | 1.0 | 1.0 | 0.00 | 0.00 | 0.00 | 85 | 4087.0 |
| 20260505072538 | 43 | 92 | 2.0 | 3.0 | 0.00 | 0.00 | 0.00 | 85 | 4087.0 |
| 20260505072035 | 43 | 48 | 1.0 | 2.0 | 0.00 | 0.00 | 0.00 | 86 | 4087.0 |
| 20260505071530 | 42 | 83 | 1.0 | 2.0 | 0.00 | 0.00 | 0.00 | 89 | 4087.0 |
| 20260505071029 | 42 | 89 | 0.0 | 1.0 | 0.00 | 0.00 | 0.00 | 91 | 4087.0 |
| 20260505070526 | 42 | 100 | 0.0 | 1.0 | 0.00 | 0.00 | 0.00 | 92 | 4087.0 |
| 20260505070022 | 43 | 110 | 0.0 | 0.0 | 0.00 | 0.00 | 0.00 | 91 | 4087.0 |
| 20260505065518 | 43 | 110 | 0.0 | 0.0 | 0.00 | 0.00 | 0.00 | 90 | 4086.6 |
| 20260505065014 | 43 | 107 | 0.0 | 1.0 | 0.00 | 0.00 | 0.00 | 88 | 4086.6 |
| 20260505064511 | 44 | 107 | 0.0 | 0.0 | 0.00 | 0.00 | 0.00 | 86 | 4086.6 |
| 20260505064010 | 44 | 79 | 0.0 | 0.0 | 0.00 | 0.00 | 0.00 | 85 | 4086.6 |
| 20260505063507 | 43 | 75 | 0.0 | 1.0 | 0.00 | 0.00 | 0.00 | 85 | 4086.6 |
| 20260505063002 | 43 | 77 | 1.0 | 1.0 | 0.00 | 0.00 | 0.00 | 86 | 4086.6 |
| 20260505062459 | 43 | 102 | 1.0 | 2.0 | 0.00 | 0.00 | 0.00 | 89 | 4086.6 |
| 20260505061956 | 43 | 83 | 0.0 | 0.0 | 0.00 | 0.00 | 0.00 | 91 | 4086.6 |
| 20260505061454 | 43 | 90 | 0.0 | 0.0 | 0.00 | 0.00 | 0.00 | 92 | 4086.6 |
| 20260505060951 | 43 | 86 | 0.0 | 0.0 | 0.00 | 0.00 | 0.00 | 91 | 4086.6 |
| 20260505060449 | 43 | 89 | 0.0 | 0.0 | 0.00 | 0.00 | 0.00 | 91 | 4086.6 |
| 20260505055945 | 43 | 71 | 0.0 | 1.0 | 0.00 | 0.00 | 0.00 | 89 | 4086.3 |
| 20260505055441 | 43 | 50 | 2.0 | 2.0 | 0.00 | 0.00 | 0.00 | 88 | 4086.3 |
| 20260505054938 | 43 | 97 | 0.0 | 1.0 | 0.00 | 0.00 | 0.00 | 90 | 4086.3 |
| 20260505054435 | 44 | 83 | 0.0 | 0.0 | 0.00 | 0.00 | 0.00 | 91 | 4086.3 |
| 20260505053933 | 44 | 89 | 0.0 | 0.0 | 0.00 | 0.00 | 0.00 | 89 | 4086.3 |
| 20260505053430 | 44 | 102 | 0.0 | 0.0 | 0.00 | 0.00 | 0.00 | 88 | 4086.0 |
| 20260505052927 | 45 | 105 | 0.0 | 0.0 | 0.00 | 0.00 | 0.00 | 87 | 4086.3 |
| 20260505052424 | 45 | 105 | 0.0 | 0.0 | 0.00 | 0.00 | 0.00 | 84 | 4086.3 |
| 20260505051921 | 46 | 58 | 1.0 | 2.0 | 0.00 | 0.00 | 0.00 | 81 | 4086.0 |
| 20260505051418 | 46 | 50 | 0.0 | 0.0 | 0.00 | 0.00 | 0.00 | 79 | 4086.0 |
| 20260505050916 | 46 | 37 | 1.0 | 2.0 | 0.00 | 0.00 | 0.00 | 77 | 4086.0 |
| 20260505050414 | 46 | 33 | 0.0 | 1.0 | 0.00 | 0.00 | 0.00 | 76 | 4085.6 |